Location: Arpaise
(41.0333°N, 14.7333°E)
Time: 16:56:09
(UTC+00:00)

COSMOS 2455 - Pass Details

Date: 05 July 2020
Orbit: 898 x 911 km, 67.1° (Epoch: 11 August)

Event Time Altitude Azimuth Distance (km) Brightness Sun altitude
Rises 23:28:54 0° 330° (NNW) 3,549 6.7 -26.1°
Reaches altitude 10° 23:31:25 10° 330° (NNW) 2,604 5.9 -26.0°
Maximum altitude 23:37:29 86° 243° (WSW) 919 2.7 -25.9°
Enters shadow 23:38:25 66° 163° (SSE) 992 2.7 -25.9°
